TIANWANG 1B (TW-1B)
1 40927U 15051C   19362.36646694  .00010784  00000-0  14464-3 0  9991
2 40927  97.1143  47.4771 0008296  38.6153  90.4720 15.58088977239970
TIANWANG 1A (TW-1A)
1 40928U 15051D   19362.45574664  .00002099  00000-0  51520-4 0  9994
2 40928  97.1271  29.3978 0012498  90.9544  14.9667 15.41723989238864
LAPAN A2
1 40931U 15052B   19359.88757643  .00000532  00000-0 -14754-4 0  9991
2 40931   5.9859 140.5424 0010111 333.4127  26.3464 14.76619879229413
LQSAT
1 40958U 15057A   19362.33673571  .00000032  00000-0  12629-4 0  9999
2 40958  97.8774  66.0988 0017738 347.3402  12.7358 14.73101710227165
CHUBUSAT 2
1 41338U 16012B   19362.38107536  .00000260  00000-0  13440-4 0  9997
2 41338  31.0046   0.1446 0013784 211.9037 148.0764 15.00224433211879
CHUBUSAT 3
1 41339U 16012C   19362.39487738  .00000251  00000-0  12696-4 0  9996
2 41339  31.0138 357.9029 0013380 220.3748 139.5894 15.00394425211875
OUFTI-1
1 41458U 16025C   19361.80187572 +.00000874 +00000-0 +47717-4 0  9993
2 41458 098.1004 098.4406 0166326 071.1728 290.7456 15.06343935201484
E-STAR-2
1 41459U 16025D   19362.53051371  .00000895  00000-0  49045-4 0  9991
2 41459  98.1012  98.7510 0167723  70.4540 291.4695 15.05947966201564
AAUSAT 4
1 41460U 16025E   19362.51998891  .00001174  00000-0  61510-4 0  9990
2 41460  98.0977 100.5044 0157191  61.2110 300.4784 15.08037282201720
NUSAT 1
1 41557U 16033B   19362.52104504  .00000920  00000-0  36764-4 0  9998
2 41557  97.4117  88.8784 0013040 343.0573  17.0229 15.27624638199520
BEESAT 4
1 41619U 16040W   19362.44085610  .00001058  00000-0  47093-4 0  9992
2 41619  97.3445  60.8562 0012737  69.3871 290.8731 15.23569339183206
PRATHAM
1 41783U 16059A   19361.71550181  .00000054  00000-0  19536-4 0  9999
2 41783  98.0431  56.7967 0034493 138.5577 221.8250 14.63028688173624
ALSAT 1N
1 41789U 16059G   19362.42830242  .00000062  00000-0  20679-4 0  9992
2 41789  98.0468  59.9164 0029387 124.9199 235.4778 14.64286158173859
NAYIF 1
1 42017U 17008BX  19361.92410532 +.00001193 +00000-0 +49168-4 0  9992
2 42017 097.3826 066.8513 0005632 196.9903 163.1148 15.26010007159239
MAX VALIER SAT
1 42778U 17036P   19361.87977629 +.00000691 +00000-0 +32958-4 0  9997
2 42778 097.3305 055.0691 0010650 268.6117 091.3900 15.22320480139479
